Wind_Speed
48 49 49 49 50 51 52 52 52 52 51 50 51 52 52 53 52 53 53 54 54 55 55 55 56 56 56 56 55 55 55 55 55 55 55 55 54 53
48 48 48 49 49 50 50 50 51 52 51 51 51 52 52 53 53 53 53 53 54 54 55 55 55 54 54 54 54 54 53 52 52 53 53 53 52 52
47 48 48 48 49 49 49 49 50 51 51 51 51 52 52 52 53 53 54 54 53 54 53 53 52 52 52 51 51 51 51 51 51 51 51 51 51 51
46 47 48 47 47 47 47 48 48 49 50 50 51 51 52 52 52 52 53 53 53 52 52 51 50 50 50 49 50 51 51 51 50 50 50 50 50 50
45 45 46 46 45 45 46 46 47 48 49 50 49 49 50 51 52 52 52 52 51 51 51 50 50 49 49 48 48 49 50 51 50 49 49 49 50 50
42 42 43 43 44 44 44 44 46 46 47 48 48 48 48 49 51 51 50 49 49 49 49 49 49 49 48 47 47 48 48 48 49 49 48 48 49 50
40 41 41 41 42 42 42 42 43 44 44 45 45 46 47 48 49 49 49 47 47 47 48 48 48 48 46 46 47 47 48 48 48 48 48 48 49 49
39 39 40 41 42 42 41 41 42 43 43 44 45 45 45 46 46 47 47 46 46 46 46 47 48 48 47 46 46 46 46 47 47 47 47 47 48 49
39 39 40 40 40 41 41 42 42 42 43 43 43 43 44 45 45 45 46 46 45 46 46 46 46 46 47 47 46 45 46 46 45 46 47 47 46 46
38 38 39 38 38 40 41 42 43 43 42 42 42 42 42 43 43 44 44 44 45 45 46 45 46 46 46 45 45 45 45 45 45 45 44 44 44 44
38 38 38 39 39 40 41 42 43 43 42 41 41 41 41 42 42 42 42 44 44 44 45 45 44 44 44 44 43 43 43 44 43 43 43 43 43 43
38 38 38 39 39 40 41 41 41 41 41 40 40 40 40 40 40 41 42 43 43 43 43 42 42 42 42 42 42 42 42 43 42 42 42 42 42 42
37 37 38 38 38 39 39 39 39 40 40 39 39 39 39 39 39 39 40 40 40 40 40 40 40 41 41 41 41 41 40 41 41 41 41 41 41 41
37 37 37 38 38 38 38 38 38 38 38 37 37 37 37 36 36 36 37 37 37 37 37 38 39 39 38 38 38 38 38 38 39 39 39 39 39 39
37 37 37 37 37 37 37 37 36 36 36 36 36 36 36 35 36 35 35 35 35 35 36 36 36 36 36 36 36 36 36 37 37 38 37 36 36 37
37 37 37 37 37 37 36 36 35 35 34 34 35 35 35 35 35 34 33 33 33 33 34 34 34 34 33 32 33 33 34 34 35 35 35 35 35 35
36 36 36 36 36 36 35 35 34 33 33 33 34 33 34 35 34 34 33 33 32 32 32 33 33 32 31 31 30 31 31 32 33 33 33 32 32 32
35 35 35 35 35 35 34 33 33 33 32 32 32 32 33 33 33 33 33 33 32 31 31 31 30 30 29 29 29 29 30 30 30 30 31 30 30 30
33 34 34 34 34 34 34 33 33 32 32 31 31 31 31 31 31 31 30 30 30 30 30 29 28 28 27 27 27 28 29 28 28 28 28 28 27 27
32 32 32 32 32 32 32 31 31 31 30 30 29 29 29 29 28 29 29 29 30 29 28 28 27 27 27 26 26 26 27 27 27 27 26 25 25 25
31 31 31 30 30 30 29 29 28 28 28 28 28 28 28 28 28 28 28 28 27 26 26 26 25 25 25 25 25 25 26 26 26 26 25 25 24 23
29 29 29 29 28 28 28 27 27 26 26 26 27 27 26 26 26 26 25 25 24 24 24 24 24 24 24 24 24 25 25 25 25 24 24 23 23 21
27 27 27 27 27 27 26 26 25 25 25 25 25 25 25 25 24 24 23 22 22 22 23 23 23 24 24 23 22 22 22 22 23 22 21 21 21 20
Wind_Direction
271 272 272 272 272 273 273 272 272 271 271 272 272 272 272 271 271 271 270 271 271 271 271 270 269 268 267 266 266 266 266 266 266 265 265 264 264 263
273 273 273 274 274 275 274 273 273 273 273 273 273 272 271 271 271 271 271 271 271 272 272 271 270 269 268 268 267 266 266 266 265 264 264 263 262 262
275 275 275 275 275 275 275 274 274 273 274 274 274 273 272 271 271 271 270 271 272 272 272 272 271 269 268 268 268 266 265 265 264 264 263 263 262 261
277 276 276 276 276 275 275 275 275 274 275 275 274 273 272 271 271 271 271 270 272 272 271 270 269 269 267 267 267 265 265 265 265 265 264 263 262 261
278 277 276 276 276 276 276 276 276 276 276 275 274 273 272 272 271 272 272 271 271 271 270 269 268 267 267 268 266 266 266 266 265 265 264 263 261 261
280 279 278 278 278 278 278 278 278 278 277 276 275 274 273 273 273 272 271 271 270 270 269 269 268 267 268 267 266 266 267 266 266 265 264 263 261 261
280 280 279 279 280 280 279 279 280 280 279 277 276 275 275 275 274 272 270 269 269 269 269 269 269 268 268 269 268 267 267 266 266 265 263 262 261 261
280 280 280 279 279 280 280 279 280 281 279 279 278 278 278 277 276 273 270 268 268 269 269 269 269 268 267 267 268 267 266 266 266 264 262 263 262 262
281 281 280 279 278 279 279 280 282 282 281 280 280 280 279 278 276 274 272 270 270 270 270 269 268 268 267 267 267 266 266 265 265 264 264 264 263 262
281 280 280 279 279 279 280 282 283 282 281 281 280 280 280 279 278 276 274 272 272 272 272 270 268 268 267 267 267 267 267 267 267 266 265 265 263 262
282 281 280 280 280 281 282 283 284 282 281 281 281 280 278 278 278 278 276 274 273 273 272 271 269 267 266 266 266 267 267 267 267 266 266 265 265 264
283 282 281 281 281 283 284 285 284 282 280 280 281 280 280 280 280 279 278 276 274 273 273 272 271 267 265 265 266 267 267 267 267 266 266 266 265 265
284 283 282 282 283 284 285 286 286 284 281 280 280 281 280 280 280 280 279 278 276 274 273 271 271 270 268 267 267 267 267 267 267 266 265 265 264 264
285 285 284 284 285 285 286 287 287 285 283 281 281 281 280 280 281 282 282 280 277 274 273 273 273 271 270 269 268 267 267 266 266 264 263 263 263 262
287 287 286 285 284 285 285 286 286 286 284 280 280 279 279 280 281 282 283 282 278 276 275 275 275 274 272 271 269 268 266 266 266 264 263 262 262 262
286 287 287 285 284 284 285 284 284 285 284 281 281 280 280 280 281 281 281 281 280 278 276 275 276 274 272 271 268 267 266 266 265 264 264 264 263 263
286 287 287 287 286 286 285 284 284 285 284 282 280 279 280 280 280 280 280 279 278 276 275 275 275 274 271 269 268 267 266 265 264 264 263 262 262 262
286 286 287 288 288 287 286 284 284 284 284 283 282 279 279 279 279 279 278 277 277 277 276 274 273 271 269 267 266 266 266 266 264 263 263 261 260 259
287 287 288 288 289 288 287 286 284 284 284 283 282 280 279 279 278 278 277 277 278 277 276 273 271 269 269 268 266 265 265 265 264 262 261 260 258 257
288 288 289 290 290 290 288 287 285 284 283 282 282 282 280 279 279 277 276 277 278 277 274 271 270 269 268 267 266 265 265 263 261 260 259 258 256 255
289 290 290 291 292 291 290 289 286 284 283 281 281 282 282 281 280 279 278 278 276 274 272 271 268 267 268 266 266 265 264 261 257 255 254 253 252 251
291 291 291 292 293 293 292 290 287 284 283 283 282 283 283 283 282 280 278 275 273 272 271 269 267 267 267 267 267 266 263 258 253 250 250 249 249 248
293 293 293 294 294 293 292 290 287 285 284 283 283 283 282 282 281 278 276 273 271 271 270 268 268 268 268 268 266 264 260 254 249 248 248 247 245 244
Height
5635 5633 5632 5632 5630 5629 5628 5627 5627 5627 5628 5627 5626 5624 5622 5622 5621 5620 5620 5619 5618 5617 5617 5616 5615 5615 5614 5614 5614 5614 5615 5615 5615 5616 5617 5618 5620 5621
5622 5621 5620 5618 5617 5615 5614 5613 5612 5612 5613 5613 5612 5610 5609 5608 5606 5605 5604 5603 5603 5601 5600 5600 5599 5598 5598 5598 5598 5598 5599 5599 5600 5601 5602 5603 5605 5606
5610 5608 5607 5605 5604 5602 5601 5600 5599 5598 5597 5598 5596 5595 5594 5593 5592 5590 5589 5588 5587 5586 5585 5584 5583 5583 5583 5583 5583 5583 5584 5584 5585 5586 5587 5588 5590 5592
5598 5596 5594 5592 5591 5589 5587 5586 5585 5584 5583 5583 5582 5581 5579 5578 5577 5575 5574 5573 5572 5571 5570 5570 5569 5568 5568 5569 5569 5569 5569 5570 5571 5572 5573 5575 5576 5578
5585 5583 5581 5580 5578 5576 5575 5574 5573 5571 5569 5568 5567 5566 5565 5563 5562 5561 5559 5558 5557 5556 5556 5555 5555 5555 5555 5555 5554 5555 5555 5556 5557 5558 5559 5560 5562 5563
5574 5571 5569 5568 5566 5564 5563 5562 5560 5559 5557 5555 5554 5553 5551 5549 5548 5547 5545 5544 5544 5543 5542 5542 5542 5542 5542 5542 5542 5541 5541 5542 5543 5544 5545 5546 5547 5549
5563 5560 5558 5557 5555 5553 5551 5550 5548 5546 5544 5542 5541 5540 5538 5536 5534 5532 5531 5531 5530 5529 5529 5529 5529 5529 5529 5528 5528 5528 5528 5529 5529 5530 5531 5532 5533 5534
5552 5550 5548 5546 5544 5542 5540 5538 5536 5534 5532 5530 5529 5527 5525 5522 5520 5518 5517 5518 5518 5517 5516 5516 5515 5515 5515 5515 5515 5515 5515 5515 5516 5516 5517 5518 5519 5519
5541 5539 5537 5535 5533 5531 5529 5527 5525 5522 5520 5518 5516 5514 5512 5510 5508 5506 5504 5504 5504 5503 5502 5503 5502 5502 5502 5502 5502 5502 5502 5502 5502 5503 5504 5504 5505 5505
5531 5529 5527 5524 5522 5520 5518 5516 5513 5511 5508 5506 5504 5502 5499 5496 5494 5493 5492 5491 5491 5490 5488 5489 5489 5488 5488 5488 5488 5489 5489 5489 5489 5489 5490 5490 5491 5492
5520 5518 5516 5514 5511 5509 5507 5505 5502 5499 5496 5494 5492 5489 5487 5485 5483 5481 5480 5479 5479 5477 5475 5475 5475 5475 5475 5476 5476 5476 5476 5476 5477 5477 5477 5477 5478 5478
5510 5507 5505 5503 5500 5497 5495 5493 5490 5487 5485 5482 5480 5478 5475 5473 5471 5469 5468 5466 5465 5465 5464 5462 5462 5461 5463 5464 5464 5463 5463 5464 5464 5464 5464 5465 5465 5465
5499 5497 5494 5492 5489 5486 5483 5481 5478 5475 5473 5471 5469 5466 5464 5462 5460 5458 5456 5455 5453 5453 5452 5450 5450 5449 5449 5451 5451 5451 5451 5451 5451 5451 5452 5452 5452 5452
5488 5486 5483 5481 5478 5475 5473 5470 5467 5464 5462 5460 5458 5456 5454 5452 5450 5448 5446 5444 5443 5442 5441 5439 5439 5438 5437 5438 5439 5439 5439 5439 5439 5439 5440 5440 5440 5439
5477 5475 5472 5470 5467 5465 5462 5459 5456 5453 5451 5449 5447 5446 5444 5442 5440 5438 5436 5434 5433 5432 5430 5429 5428 5427 5426 5427 5427 5427 5428 5428 5428 5428 5428 5428 5429 5429
5467 5465 5462 5459 5457 5454 5451 5448 5445 5443 5441 5438 5436 5434 5433 5431 5429 5427 5426 5424 5422 5422 5420 5419 5417 5417 5416 5416 5417 5417 5417 5418 5418 5418 5418 5418 5418 5418
5456 5454 5452 5449 5446 5443 5441 5438 5435 5433 5430 5428 5426 5424 5422 5421 5419 5417 5416 5414 5413 5412 5411 5409 5408 5407 5407 5407 5407 5408 5408 5408 5408 5408 5409 5409 5410 5410
5446 5444 5441 5439 5436 5433 5430 5428 5425 5423 5420 5418 5416 5414 5413 5411 5409 5408 5406 5405 5403 5402 5401 5400 5399 5399 5398 5399 5399 5399 5399 5399 5399 5399 5399 5401 5401 5402
5436 5434 5431 5429 5426 5423 5420 5418 5416 5413 5411 5408 5407 5405 5403 5401 5400 5398 5396 5395 5394 5393 5392 5391 5390 5390 5391 5391 5391 5390 5390 5390 5391 5391 5391 5392 5393 5394
5427 5424 5422 5419 5416 5413 5411 5408 5406 5404 5401 5399 5398 5396 5394 5392 5391 5389 5388 5386 5385 5384 5384 5383 5383 5382 5382 5383 5383 5383 5382 5382 5383 5383 5384 5384 5385 5386
5418 5415 5413 5410 5407 5404 5402 5399 5397 5395 5393 5391 5389 5388 5386 5384 5382 5381 5379 5378 5377 5376 5376 5376 5375 5375 5374 5374 5375 5375 5375 5374 5375 5375 5376 5377 5379 5380
5409 5406 5404 5401 5399 5396 5393 5391 5389 5387 5385 5383 5381 5380 5378 5376 5374 5373 5371 5370 5369 5369 5369 5368 5368 5367 5367 5367 5367 5367 5367 5367 5367 5368 5369 5370 5371 5373
5401 5398 5396 5393 5391 5388 5385 5383 5381 5379 5377 5375 5374 5372 5370 5368 5367 5365 5364 5363 5362 5362 5361 5361 5360 5360 5359 5359 5359 5359 5359 5360 5360 5362 5363 5364 5365 5367